Location: San Gennaro Vesuviano
(40.8833°N, 14.5333°E)
Time: 23:00:09
(UTC+00:00)

Cosmos 540 Rocket - Pass Details

Date: 22 April 2021
Orbit: 741 x 753 km, 74.1° (Epoch: 10 May)

Event Time Altitude Azimuth Distance (km) Brightness Sun altitude
Rises 21:05:40 0° 342° (NNW) 3,191 7.8 -30.4°
Reaches altitude 10° 21:08:02 10° 344° (NNW) 2,262 6.8 -30.6°
Enters shadow 21:11:41 46° 358° (N) 988 4.3 -31.0°
